Location: Peterborough
(44.3091°N, 78.3197°W)
Time: 07:11:25
(UTC-04:00)

Vanguard 3 - Pass Details

Date: 29 March 2023
Orbit: 507 x 3246 km, 33.4° (Epoch: 04 June)

Event Time Altitude Azimuth Distance (km) Brightness Sun altitude
Rises 03:45:47 0° 239° (WSW) 6,383 - -32.1°
Reaches altitude 10° 03:49:45 10° 235° (SW) 5,631 - -31.6°
Exits shadow 04:00:13 41° 212° (SSW) 4,074 10.1 -30.2°
Maximum altitude 04:07:22 54° 165° (SSE) 3,694 10.2 -29.2°
Drops below altitude 10° 04:25:07 10° 95° (E) 5,675 12.0 -26.7°
Sets 04:29:08 0° 92° (E) 6,435 12.5 -26.1°
